Stations météo

réclame
Mon MeteoGroup
Rostherne No 2, Grande-Bretagne (3351): Température de l'air & dewpoint: 18.04.2018 09:00:00 - 24.04.2018 09:00:00 (BST)Rostherne No 2, Grande-Bretagne (3351): Vitesse du vent & gusts: 18.04.2018 09:00:00 - 24.04.2018 09:00:00 (BST)Rostherne No 2, Grande-Bretagne (3351): Direction du vent: 18.04.2018 09:00:00 - 24.04.2018 09:00:00 (BST)Rostherne No 2, Grande-Bretagne (3351): reduced air pressure: 18.04.2018 09:00:00 - 24.04.2018 09:00:00 (BST)Rostherne No 2, Grande-Bretagne (3351): visibility: 18.04.2018 09:00:00 - 24.04.2018 09:00:00 (BST)Rostherne No 2, Grande-Bretagne (3351): Ensoleillement: 18.04.2018 09:00:00 - 24.04.2018 09:00:00 (BST)Rostherne No 2, Grande-Bretagne (3351): Quantités de précipitations: 18.04.2018 09:00:00 - 24.04.2018 09:00:00 (BST)
Date & Time tt [°C] td [°C] ff [km/h] ff [knt] fx [km/h] fx [knt] dd ppp [hPa] vv [km] sd [min] rr [mm]
24.04.2018 09:00:00 - - - - - - - - - - 0,0
24.04.2018 08:00:00 9,4 5,7 11 6 - - WSW 1013,0 26 0 0,0
24.04.2018 07:00:00 8,7 5,4 8 4 - - SW 1012,7 23 0 0,0
24.04.2018 06:00:00 8,7 5,3 13 7 - - WSW 1012,2 23 0 0,0
24.04.2018 05:00:00 8,5 5,9 5 3 - - SW 1012,7 17 0 0,0
24.04.2018 04:00:00 9,4 5,9 11 6 - - WSW 1012,0 17 0 0,0
24.04.2018 03:00:00 9,5 6,2 16 9 - - W 1012,2 14 0 0,0
24.04.2018 02:00:00 9,9 6,7 16 9 - - W 1012,1 14 0 0,0
24.04.2018 01:00:00 10,4 6,7 18 10 - - W 1012,3 19 - 0,0
24.04.2018 00:00:00 11,5 8,3 22 12 - - W 1012,0 40 0 0,0
23.04.2018 23:00:00 11,3 9,3 13 7 - - WSW 1011,7 50 0 0,0
23.04.2018 22:00:00 10,9 9,2 13 7 - - SW 1011,4 50 0 0,0
23.04.2018 21:00:00 10,9 8,7 16 9 - - SW 1011,3 50 0 0,0
23.04.2018 20:00:00 11,1 8,2 16 9 - - SW 1011,3 50 0 0,0
23.04.2018 19:00:00 11,2 8,0 21 11 - - SW 1011,4 50 0 0,2
23.04.2018 18:00:00 12,0 8,1 15 8 - - SW 1011,7 15 0 0,2
23.04.2018 17:00:00 12,9 6,5 18 10 46 25 WSW 1012,0 50 0 0,0
23.04.2018 16:00:00 13,7 6,2 16 9 - - SW 1012,4 45 6 0,0
23.04.2018 15:00:00 13,3 5,1 16 9 - - WSW 1013,3 30 24 0,0
23.04.2018 14:00:00 12,6 4,6 18 10 - - WSW 1013,9 35 6 0,0
23.04.2018 13:00:00 13,2 4,5 21 11 - - WSW 1014,0 50 30 0,0
23.04.2018 12:00:00 12,0 4,4 18 10 - - W 1014,2 30 6 0,0
23.04.2018 11:00:00 11,4 4,7 18 10 - - W 1014,1 35 0 0,0
23.04.2018 10:00:00 10,8 4,7 22 12 - - W 1013,9 35 0 0,0
23.04.2018 09:00:00 10,2 5,0 22 12 - - W 1013,6 30 0 0,0
23.04.2018 08:00:00 10,1 5,7 22 12 - - W 1013,1 40 0 0,0
23.04.2018 07:00:00 9,7 5,7 22 12 - - W 1012,6 35 0 0,0
23.04.2018 06:00:00 9,7 5,8 26 14 - - W 1012,0 45 0 0,0
23.04.2018 05:00:00 9,9 5,6 18 10 - - W 1011,8 40 0 0,0
23.04.2018 04:00:00 10,1 5,8 24 13 - - W 1011,3 40 0 0,0
23.04.2018 03:00:00 10,5 5,7 29 16 - - W 1011,0 40 0 0,0
23.04.2018 02:00:00 10,4 7,2 16 9 - - W 1010,9 35 0 0,0
23.04.2018 01:00:00 10,7 7,0 15 8 - - WSW 1010,6 30 - 0,0
23.04.2018 00:00:00 10,6 6,7 15 8 - - WSW 1010,2 45 0 0,0
22.04.2018 23:00:00 10,2 6,0 11 6 - - WSW 1010,1 45 0 0,0
22.04.2018 22:00:00 10,8 6,5 15 8 - - WSW 1009,8 50 0 0,0
22.04.2018 21:00:00 10,8 5,8 13 7 - - W 1009,2 50 0 0,0
22.04.2018 20:00:00 12,4 6,8 13 7 - - W 1008,4 50 24 0,0
22.04.2018 19:00:00 13,6 7,8 15 8 - - W 1008,0 40 42 0,0
22.04.2018 18:00:00 13,6 8,7 16 9 - - WNW 1007,9 45 36 0,0
22.04.2018 17:00:00 11,6 8,8 18 10 - - NW 1007,8 30 0 0,0
22.04.2018 16:00:00 13,0 9,7 18 10 - - WNW 1007,8 40 0 0,0
22.04.2018 15:00:00 13,4 8,7 15 8 - - W 1007,7 40 0 0,0
22.04.2018 14:00:00 14,5 7,5 15 8 - - W 1007,5 45 18 0,0
22.04.2018 13:00:00 14,9 10,3 15 8 - - W 1007,3 9 6 0,0
22.04.2018 12:00:00 13,4 10,5 9 5 - - SSW 1007,4 9 0 0,6
22.04.2018 11:00:00 13,2 11,4 4 2 - - S 1007,4 5 0 1,0
22.04.2018 10:00:00 14,2 10,8 22 12 - - W 1007,9 8 0 0,0
22.04.2018 09:00:00 15,8 11,8 11 6 - - SSW 1007,0 20 12 0,0
22.04.2018 08:00:00 15,5 11,5 16 9 - - S 1007,0 28 60 0,0
22.04.2018 07:00:00 14,8 11,2 18 10 - - S 1007,0 29 18 0,0
22.04.2018 06:00:00 14,5 11,1 13 7 - - S 1007,4 20 0 0,0
22.04.2018 05:00:00 15,4 11,2 21 11 - - S 1007,8 25 0 0,0
22.04.2018 04:00:00 16,0 11,3 21 11 - - S 1008,4 40 0 0,0
22.04.2018 03:00:00 15,5 10,8 15 8 - - S 1009,4 45 0 0,0
22.04.2018 02:00:00 16,2 10,8 15 8 - - S 1010,0 50 0 0,0
22.04.2018 01:00:00 17,1 11,2 21 11 - - S 1010,7 26 - 0,0
22.04.2018 00:00:00 17,4 11,6 15 8 - - S 1010,9 20 0 0,0
21.04.2018 23:00:00 18,2 12,6 15 8 - - S 1011,6 15 0 0,0
21.04.2018 22:00:00 17,4 13,5 13 7 - - SSE 1011,8 9 0 0,0
21.04.2018 21:00:00 18,3 13,6 13 7 - - S 1012,4 8 0 0,0
21.04.2018 20:00:00 18,8 13,4 18 10 - - SSE 1012,7 12 24 0,0
21.04.2018 19:00:00 20,1 13,2 16 9 - - S 1013,4 14 60 0,0
21.04.2018 18:00:00 21,6 12,7 16 9 - - S 1014,0 22 60 0,0
21.04.2018 17:00:00 21,4 13,7 21 11 - - SSE 1014,8 12 54 0,0
21.04.2018 16:00:00 21,3 13,4 18 10 - - SSE 1016,0 12 54 0,0
21.04.2018 15:00:00 20,4 11,1 16 9 - - S 1017,2 13 60 0,0
21.04.2018 14:00:00 20,3 12,6 16 9 - - SSE 1018,2 14 60 0,0
21.04.2018 13:00:00 19,4 10,5 18 10 - - S 1019,1 21 60 0,0
21.04.2018 12:00:00 18,4 10,2 21 11 - - SSE 1019,9 26 60 0,0
21.04.2018 11:00:00 16,8 9,3 15 8 - - SSE 1020,8 19 60 0,0
21.04.2018 10:00:00 14,6 8,1 2 1 - - S 1021,7 20 60 0,0
21.04.2018 09:00:00 10,9 8,4 2 1 - - SSW 1022,3 28 60 0,0
21.04.2018 08:00:00 7,1 6,7 4 2 - - SSE 1022,9 13 12 0,0
21.04.2018 07:00:00 5,4 5,2 2 1 - - NNW 1023,3 11 0 0,0
21.04.2018 06:00:00 5,4 5,0 2 1 - - SW 1023,3 11 0 0,0
21.04.2018 05:00:00 5,9 5,6 2 1 - - SSW 1023,3 11 0 0,0
21.04.2018 04:00:00 5,7 5,4 2 1 - - NNW 1023,7 16 0 0,0
21.04.2018 03:00:00 5,0 4,6 2 1 - - N 1024,1 19 0 0,0
21.04.2018 02:00:00 4,9 4,4 2 1 - - S 1024,5 19 0 0,0
21.04.2018 01:00:00 5,2 4,3 0 0 - - N 1024,7 30 - 0,0
21.04.2018 00:00:00 6,2 5,2 2 1 - - NNE 1025,1 14 0 0,0
20.04.2018 23:00:00 7,1 5,5 4 2 - - WNW 1025,2 35 0 0,0
20.04.2018 22:00:00 9,1 5,1 4 2 - - NW 1025,3 30 0 0,0
20.04.2018 21:00:00 10,3 5,5 2 1 - - S 1025,3 35 18 0,0
20.04.2018 20:00:00 13,1 5,3 9 5 - - NNW 1024,7 40 60 0,0
20.04.2018 19:00:00 14,5 5,1 16 9 - - NW 1024,7 30 60 0,0
20.04.2018 18:00:00 15,7 5,7 18 10 - - NW 1024,7 25 60 0,0
20.04.2018 17:00:00 16,7 6,6 16 9 - - NNW 1024,7 30 60 0,0
20.04.2018 16:00:00 17,1 7,6 15 8 - - NW 1024,7 22 60 0,0
20.04.2018 15:00:00 16,9 8,1 15 8 - - NW 1025,0 27 60 0,0
20.04.2018 14:00:00 17,1 9,7 13 7 - - NW 1025,0 35 60 0,0
20.04.2018 13:00:00 15,6 8,9 15 8 - - NW 1025,4 17 60 0,0
20.04.2018 12:00:00 15,2 9,9 9 5 - - NW 1025,4 20 48 0,0
20.04.2018 11:00:00 13,1 9,4 8 4 - - NNW 1025,3 13 0 0,0
20.04.2018 10:00:00 12,3 9,3 9 5 - - NW 1025,1 17 0 0,0
20.04.2018 09:00:00 11,4 8,9 5 3 - - N 1024,9 19 6 0,0
20.04.2018 08:00:00 11,0 9,2 8 4 - - N 1024,8 12 18 0,0
20.04.2018 07:00:00 10,3 9,3 9 5 - - NNW 1024,5 8 0 0,0
20.04.2018 06:00:00 10,6 9,7 9 5 - - NNW 1024,2 8 0 0,0
20.04.2018 05:00:00 10,5 9,7 9 5 - - NW 1024,1 8 0 0,0
20.04.2018 04:00:00 10,5 9,8 11 6 - - NNW 1024,4 9 0 0,0
20.04.2018 03:00:00 10,1 9,6 11 6 - - NNW 1024,3 9 0 0,0
20.04.2018 02:00:00 9,0 8,3 5 3 - - NW 1024,3 9 0 0,0
20.04.2018 01:00:00 10,0 9,3 9 5 - - NNW 1024,3 10 - 0,0
20.04.2018 00:00:00 10,0 9,0 8 4 - - NW 1024,3 10 0 0,0
19.04.2018 23:00:00 10,7 9,9 9 5 - - NW 1024,4 12 0 0,0
19.04.2018 22:00:00 11,5 10,2 8 4 - - NW 1024,6 13 0 0,0
19.04.2018 21:00:00 12,6 10,6 15 8 - - NNW 1024,4 17 0 0,0
19.04.2018 20:00:00 14,8 11,3 18 10 - - NW 1023,6 25 54 0,0
19.04.2018 19:00:00 17,5 12,0 22 12 - - NW 1023,2 19 60 0,0
19.04.2018 18:00:00 20,0 12,8 18 10 - - NNW 1022,9 16 60 0,0
19.04.2018 17:00:00 22,0 12,1 16 9 - - NW 1022,7 40 60 0,0
19.04.2018 16:00:00 23,5 12,0 9 5 - - W 1022,7 30 60 0,0
19.04.2018 15:00:00 23,1 11,5 8 4 - - WSW 1022,9 30 60 0,0
19.04.2018 14:00:00 23,0 11,9 5 3 - - NNW 1023,0 30 60 0,0
19.04.2018 13:00:00 21,9 10,6 8 4 - - WSW 1023,2 35 60 0,0
19.04.2018 12:00:00 20,7 10,1 8 4 - - SW 1023,4 15 60 0,0
19.04.2018 11:00:00 20,2 12,5 4 2 - - SW 1023,4 21 60 0,0
19.04.2018 10:00:00 17,9 10,8 13 7 - - S 1023,1 22 60 0,0
19.04.2018 09:00:00 16,3 11,0 11 6 - - S 1022,9 13 60 -
19.04.2018 08:00:00 12,9 10,7 0 0 - - N 1022,7 12 60 -
19.04.2018 07:00:00 9,8 8,1 8 4 - - ESE 1022,1 12 18 -
19.04.2018 06:00:00 10,1 7,8 2 1 - - E 1021,9 13 0 -
19.04.2018 05:00:00 11,4 8,8 8 4 - - SE 1021,9 16 0 -
19.04.2018 04:00:00 10,0 7,1 9 5 - - SE 1022,2 23 0 -
19.04.2018 03:00:00 10,4 7,2 5 3 - - SSE 1022,4 27 0 -
19.04.2018 02:00:00 11,5 6,8 8 4 - - SE 1022,7 30 0 0,0
19.04.2018 01:00:00 14,8 6,8 8 4 - - S 1023,0 40 - 0,0
19.04.2018 00:00:00 16,5 7,4 13 7 - - S 1022,9 35 0 0,0
18.04.2018 23:00:00 16,8 7,2 9 5 - - S 1023,0 35 0 0,0
18.04.2018 22:00:00 17,8 7,9 16 9 - - SSE 1022,5 45 0 0,0
18.04.2018 21:00:00 17,6 11,1 15 8 - - SSE 1022,1 35 6 0,0
18.04.2018 20:00:00 19,3 11,3 15 8 - - SSE 1022,0 45 60 0,0
18.04.2018 19:00:00 20,4 11,4 21 11 - - SSE 1022,1 30 60 0,0
18.04.2018 18:00:00 20,8 11,9 24 13 - - SSE 1022,7 35 54 0,0
18.04.2018 17:00:00 21,4 11,0 16 9 - - S 1023,1 45 60 0,0
18.04.2018 16:00:00 20,2 11,4 18 10 - - S 1024,1 35 60 0,0
18.04.2018 15:00:00 19,7 12,6 15 8 - - S 1024,7 26 48 0,0
18.04.2018 14:00:00 18,5 12,5 11 6 - - SSW 1025,3 35 36 0,0
18.04.2018 13:00:00 17,7 13,1 11 6 - - SSW 1025,6 35 6 0,0
18.04.2018 12:00:00 16,2 12,4 15 8 - - SSW 1025,4 29 0 0,0
18.04.2018 11:00:00 15,4 11,9 16 9 - - S 1025,0 23 0 0,0
18.04.2018 10:00:00 15,9 12,1 15 8 - - SW 1024,4 28 0 0,0
18.04.2018 09:00:00 14,7 11,9 18 10 - - S 1024,0 23 0 0,0

tt = Température de l'air
td = dewpoint
ff = Vitesse du vent
fx = gusts
dd = Direction du vent
ppp = reduced air pressure
vv = visibility
sd = Ensoleillement
rr = Quantités de précipitations

stations d'obs. à proximité